STARLINK-3723, 52138

Orbit data source: Space-Track

STARLINK-3723, 52138 is a payload satellite owned by SpaceX/Seattle (US) in LEO that was launched on Sat, 19 Mar 2022 UTC via an FALCON 9 launch vehicle from the Air Force Eastern Test Range (AFETR). Payload-class satellites include a variety of spacecraft equipped with specific instruments for various scientific and technological missions. These include communications satellites like Starlink; space stations such as the ISS; scientific satellites like the Hubble; Earth observation satellites from companies like Planet Labs, Umbra, and HawkEye 360; GPS; miniature CubeSats for education and research; and military/defense satellites.

Loading next visibility...
Identifier
52138, 2022-029BC
Orbit
LEO
Country
Flag of USUS
Related business
Manufacturer
SpaceX/Seattle
Mission
Operational Commercial Communications
Bus & Motor
STARLINK, Unknown motor
Mass
297 kg wet, ~275 kg dry
Launch date (UTC)
2022-03-19 (4 years ago)
Launch vehicle
FALCON 9
Launch site
Air Force Eastern Test Range (AFETR)
Object type
Payload
Rocket body
Debris
Shape & HBR
Box + 1 Pan, 10.1 m
Radar Cross Section
13.562 m², Large (>1 m²)

Expand to show TLE details & history
Last TLE update: 2 days ago

TLE from 2 days ago
0 STARLINK-3723
1 52138U 22029BC  26171.46500066 -.00000210  00000-0  48909-5 0  9997
2 52138  53.1608 327.6269 0001164  89.6730 270.4395 15.08827661236458
Epoch: 2026-06-20T11:09Z
TLE epoch observation values (Epoch: 2026-06-20T11:09:36.057Z)
Latitude
0.00002°
Longitude
-108.45256°
Altitude
540.666 km
Speed
7.593 km/s
True Right ascension
21h 50m 30s
True Declination
0° 00' 00"
Sunlit
Object was in full shadow at epoch
Visualization orbit readout
Latitude
Unknown
Longitude
Unknown
Altitude
Unknown
Speed
Unknown
Apparent Right ascension
Unknown
Apparent Declination
Unknown
Sunlit
N/A
Visualization observer readout
Local Sidereal Time
21:26:34
Azimuth
Unknown
Elevation
Unknown
Doppler factor
Unknown
Orbital elements
Apogee altitude
540.84 km
Perigee altitude
539.23 km
Semi-major axis
6,918.172 km
Eccentricity
0.00012
Inclination
53.1608°
RAAN
327.6269°
Arg. of periapsis
89.673°
True anomaly
270.42616°
Mean anomaly
270.4395°
Eccentric anomaly
270.43283°
Mean motion
3.77186 °/min
Orbital period
95.44 mins
BSTAR
0.0000048909
Loading maneuver chart data...
Computing Atmospheric mass density...
Loading historical data...
Loading historical data...
Loading historical data...
Loading historical data...
Loading historical data...
Loading historical data...
Loading historical data...

Documentation

Showing up to 5 results
|